Regional Weather Roundup
Issued by NWS

Home | Current Version | Previous Version | Text Only | Print | Product List | Glossary Off
Versions: 1 2 3 4 5 6 7 8 9 10 11 12 13 14 15 16 17 18 19 20 21 22 23 24 25 26 27 28 29 30 31 32 33 34 35 36 37 38 39 40 41 42 43 44 45 46 47 48 49

000
ASUS45 KBOU 022107
RWRCO

WEATHER ROUNDUP FOR COLORADO
NATIONAL WEATHER SERVICE DENVER/BOULDER CO
200 PM MST MON MAR 02 2015

NOTE: "FAIR" INDICATES FEW OR NO CLOUDS BELOW 12000 FEET WITH NO
SIGNIFICANT WEATHER AND/OR OBSTRUCTIONS TO VISIBILITY.

COZ001>005-013-030-031-022200-
...NORTHWEST COLORADO...

CITY           SKY/WX    TMP DP  RH WIND       PRES   REMARKS
CRAIG          LGT RAIN  44  35  70 CALM      29.66F
HAYDEN         NOT AVBL
MEEKER         LGT RAIN  49  37  63 SW17      29.65F
MOUNT WERNER   NOT AVBL
STEAMBOAT SPGS CLOUDY    37  32  81 CALM      29.67F
WALDEN         CLOUDY    37  28  70 S15       29.70F
$$

COZ006>008-011-022200-
...WEST CENTRAL VALLEYS...

CITY           SKY/WX    TMP DP  RH WIND       PRES   REMARKS
GRAND JUNCTION PTSUNNY   55  37  50 S24G36    29.64F
MONTROSE       NOT AVBL
EAGLE          CLOUDY    41  36  81 NW5       29.72F
RIFLE          CLOUDY    41  38  89 N5        29.67F
DELTA          PTSUNNY   62  33  33 SW23G32   29.68F
NUCLA          NOT AVBL
$$

COZ017>023-064>068-022200-
...SOUTHWEST COLORADO...

CITY           SKY/WX    TMP DP  RH WIND       PRES   REMARKS
DURANGO        CLOUDY    42  29  59 NE12      29.83F
CORTEZ         CLOUDY    51  32  48 S20G31    29.74F
PAGOSA SPRINGS LGT RAIN  39  32  76 CALM      29.89F
TELLURIDE      LGT SNOW  38  26  60 S22G35    29.82F
WOLF CREEK PAS CLOUDY    23  23 100 SW15G29   29.92F WCI  10
$$

COZ009-010-012-014-032>034-037-058>063-022200-
...CENTRAL COLORADO...

CITY           SKY/WX    TMP DP  RH WIND       PRES   REMARKS
ASPEN          CLOUDY    44  27  51 S16       29.72F
BUENA VISTA    CLOUDY    43  25  49 SE12G23   29.78F
COPPER MTN     LGT SNOW  30  21  69 S22G28    29.83F WCI  17
BERTHOUD PASS  CLOUDY    27  19  74 SW15G28   29.85F WCI  15
COTTONWOOD PAS CLOUDY    41  18  38 W13G22    29.81F
GUNNISON       NOT AVBL
KREMMLING      CLOUDY    43  28  56 W14       29.72F
LEADVILLE      CLOUDY    34  21  59 S17G25    29.78F WCI  23
SALIDA         CLOUDY    47  27  45 S17G24    29.84F
SUNLIGHT       CLOUDY    32  30  93 S5          N/A  FOG     WCI  27
WILKERSON PASS MOSUNNY   32  19  59 S8G21     29.86F WCI  25
$$

COZ069>075-022200-
...SAN LUIS VALLEY/SANGRE DE CRISTO MOUNTAINS...

CITY           SKY/WX    TMP DP  RH WIND       PRES   REMARKS
ALAMOSA        PTSUNNY   43  28  55 SW15      29.84F
LA VETA PASS   CLOUDY    32  27  80 S13G25    29.90F WCI  22
SAGUACHE       PTSUNNY   46  28  49 SW20G28   29.83F
$$

COZ035-036-038>040-022200-
...NORTHERN COLORADO FRONT RANGE...

CITY           SKY/WX    TMP DP  RH WIND       PRES   REMARKS
DENVER INTL AP PTSUNNY   31  22  69 N5        29.73F HAZE    WCI  26
DMNS CITY PARK   N/A     34  21  59 NE7       29.72F WCI  28
AURORA         PTSUNNY   34  21  59 NE3       29.72F
FRONT RANGE AP NOT AVBL
ERIE MUNI ARPT MOSUNNY   31  21  66 CALM      29.73F
BOULDER MUN AP MOSUNNY   32  21  64 W5        29.74F WCI  27
CENTENNIAL     PTSUNNY   37  22  54 N6        29.70F FOG
BROOMFIELD     MOSUNNY   30  21  69 CALM      29.74F HAZE
FORT COLLINS   SUNNY     37  25  60 N3        29.75F
LONGMONT       SUNNY     42  22  43 W5        29.76F
$$

COZ041-046-047-076>085-087-088-022200-
...PIKES PEAK/PALMER DIVIDE AND SOUTHERN FOOTHILLS...

CITY           SKY/WX    TMP DP  RH WIND       PRES   REMARKS
COLO. SPRINGS  PTSUNNY   32  25  75 NE5       29.80F HAZE    WCI  27
A. F. ACADEMY  MOSUNNY   33  24  68 S8        29.77F WCI  26
ELLICOTT       NOT AVBL
FALCON         MOSUNNY   32  25  74 CALM      29.80F
FORT CARSON    MOSUNNY   32  25  77 SE6       29.78F FOG     WCI  26
LIMON          CLOUDY    27  25  92 S17       29.80F FOG     WCI  14
MONUMENT HILL  MOSUNNY   43  25  49 SW10      29.73F
TRINIDAD       PTSUNNY   53  33  46 SW21      29.82F
$$

COZ042>045-048>051-090-091-022200-
...NORTHEAST COLORADO...

CITY           SKY/WX    TMP DP  RH WIND       PRES   REMARKS
GREELEY ARPT   SUNNY     39  23  52 SW3       29.73F
AKRON          SUNNY     37  27  67 SE23      29.77F
BURLINGTON     CLOUDY    30  25  81 S22G31    29.87F WCI  17
WRAY           CLOUDY    32  25  75 S20G25    29.89F WCI  21
STERLING       SUNNY     41  28  60 S15       29.78F
HOLYOKE        NOT AVBL
FORT MORGAN    SUNNY     44  25  48 S12G17    29.74F
$$

COZ086-089-092>099-022200-
...SOUTHEAST COLORADO...

CITY           SKY/WX    TMP DP  RH WIND       PRES   REMARKS
PUEBLO         PTSUNNY   33  28  81 E6        29.83F WCI  28
LA JUNTA       PTSUNNY   39  29  67 E5        29.84F
LAMAR          CLOUDY    41  32  70 SE14      29.85F
SPRINGFIELD      N/A     35  30  82 S26G35    29.87F WCI  22
$$



USA.gov is the U.S. government's official web portal to all federal, state and local government web resources and services.